Printer-friendly version

IAU Minor Planet Center

Minor Planet Center

MPEC 2000-H28: 2000 GH147

The following Minor Planet Electronic Circular may be linked-to from your own Web pages, but must not otherwise be redistributed electronically.


Read MPEC 2000-H27 Read MPEC 2000-H29


M.P.E.C. 2000-H28                                Issued 2000 Apr. 22, 18:29 UT

     The Minor Planet Electronic Circulars contain information on unusual
         minor planets and routine data on comets.  They are published
   on behalf of Commission 20 of the International Astronomical Union by the
          Minor Planet Center, Smithsonian Astrophysical Observatory,
                          Cambridge, MA 02138, U.S.A.

             Prepared using the Tamkin Foundation Computer Network

             BMARSDEN@CFA.HARVARD.EDU or GWILLIAMS@CFA.HARVARD.EDU
          URL http://cfa-www.harvard.edu/iau/mpc.html  ISSN 1523-6714

                                  2000 GH147

Observations:
     K00GE7H* C2000 04 12.61100 15 57 11.95 +13 06 00.2          18.9        608
     K00GE7H  C2000 04 12.62625 15 57 09.85 +13 05 30.9          18.4        608
     K00GE7H  C2000 04 12.63484 15 57 08.72 +13 05 13.1          19.8        608
     K00GE7H  C2000 04 13.07992 15 56 10.59 +12 50 25.9                      557
     K00GE7H  C2000 04 13.08155 15 56 10.35 +12 50 22.5                      557
     K00GE7H  C2000 04 13.08318 15 56 10.14 +12 50 19.9                      557
     K00GE7H  C2000 04 13.08481 15 56 09.91 +12 50 15.9          19.0 V      557
     K00GE7H  C2000 04 13.46356 15 55 19.42 +12 37 38.0                      608
     K00GE7H  C2000 04 13.48539 15 55 16.49 +12 36 54.2                      608
     K00GE7H  C2000 04 15.03997 15 51 38.61 +11 42 13.7          17.9 R      046
     K00GE7H  C2000 04 15.04125 15 51 38.34 +11 42 09.8          18.1 R      046
     K00GE7H  C2000 04 15.04228 15 51 38.26 +11 42 07.6                      046
     K00GE7H  C2000 04 15.04355 15 51 38.05 +11 42 05.4                      046
     K00GE7H  C2000 04 15.04463 15 51 37.90 +11 42 03.1          17.8 R      046
     K00GE7H  C2000 04 15.04591 15 51 37.74 +11 42 01.3                      046
     K00GE7H  C2000 04 15.10972 15 51 28.20 +11 39 40.0                      557
     K00GE7H  C2000 04 15.11251 15 51 27.80 +11 39 35.0                      557
     K00GE7H  C2000 04 15.11391 15 51 27.62 +11 39 31.4                      557
     K00GE7H 4C2000 04 15.34966 15 50 53.77 +11 30 59.7                      673
     K00GE7H 4C2000 04 15.35486 15 50 52.96 +11 30 48.7                      673
     K00GE7H 4C2000 04 15.36142 15 50 51.99 +11 30 33.9                      673
     K00GE7H  C2000 04 16.99562 15 46 43.67 +10 28 21.6                      557
     K00GE7H  C2000 04 16.99845 15 46 43.04 +10 28 12.2                      557
     K00GE7H  C2000 04 16.99985 15 46 42.96 +10 28 10.0                      557

Observer details:
046 Klet.  Observers J. Ticha, M. Tichy.  0.57-m f/5.2 reflector + CCD.
557 Ondrejov.  Observer P. Kusnirak.  0.65-m f/3.6 reflector + CCD.
608 Haleakala-NEAT/MSSS.  Observers E. F. Helin, S. Pravdo, K. Lawrence,
    P. Kervin, D. Talent, R. Maeda, P. Tanner.  1.2-m reflector + CCD.
673 Table Mountain Observatory, Wrightwood.  Observers M. Hicks, D. Deaver.
    0.6-m reflector + CCD.

Orbital elements:
2000 GH147
Epoch 2000 Apr. 6.0 TT = JDT 2451640.5                  Williams
M 351.38028              (2000.0)            P               Q
n   0.19430508     Peri.  185.08174     -0.64860063     +0.52375839
a   2.9522057      Node    46.17611     -0.66857543     -0.04527483
e   0.4781927      Incl.   49.94859     -0.36376382     -0.85066288
P   5.07           H   17.4           G   0.15
From 24 observations 2000 Apr. 12-17.

Ephemeris:
2000 GH147               a,e,i = 2.95, 0.48, 50                  q = 1.5405
Date    TT    R. A. (2000) Decl.     Delta      r     Elong.  Phase     V
2000 04 16    15 49.28   +11 06.9    0.663    1.575   141.0    23.7    18.6
2000 04 21    15 35.42   +07 38.0    0.618    1.566   148.5    19.6    18.3
2000 04 26    15 19.01   +03 27.7    0.582    1.558   156.7    14.8    18.0
2000 05 01    15 00.34   -01 21.2    0.557    1.552   164.8     9.8    17.7
2000 05 06    14 40.00   -06 37.9    0.544    1.547   169.6     6.8    17.5
2000 05 11    14 18.84   -12 04.4    0.544    1.543   165.8     9.3    17.6
2000 05 16    13 57.90   -17 20.4    0.558    1.541   157.5    14.5    17.9
2000 05 21    13 38.10   -22 09.4    0.583    1.540   148.7    20.0    18.2
2000 05 26    13 20.20   -26 22.7    0.619    1.541   140.4    24.8    18.4
2000 05 31    13 04.68   -29 58.9    0.663    1.544   132.9    28.7    18.7
2000 06 05    12 51.75   -33 01.9    0.714    1.548   126.3    31.9    19.0
2000 06 10    12 41.40   -35 37.8    0.769    1.553   120.4    34.3    19.2
2000 06 15    12 33.47   -37 52.4    0.827    1.560   115.3    36.1    19.4

2000 06 25    12 23.99   -41 37.7    0.950    1.578   106.7    38.1    19.8
2000 07 05    12 21.65   -44 48.1    1.075    1.601    99.8    38.8    20.1
2000 07 15    12 25.10   -47 41.8    1.199    1.628    94.2    38.5    20.4
2000 07 25    12 33.41   -50 28.1    1.320    1.661    89.6    37.7    20.6
2000 08 04    12 46.18   -53 11.6    1.437    1.697    85.8    36.6    20.8
2000 08 14    13 03.34   -55 54.2    1.548    1.737    82.5    35.3    21.0
2000 08 24    13 25.12   -58 34.8    1.655    1.780    79.8    34.0    21.2
2000 09 03    13 52.14   -61 10.3    1.758    1.825    77.4    32.6    21.3
2000 09 13    14 25.16   -63 35.4    1.857    1.873    75.2    31.3    21.4
2000 09 23    15 04.97   -65 41.5    1.953    1.922    73.3    30.0    21.6
2000 10 03    15 51.96   -67 18.2    2.049    1.973    71.4    28.7    21.7
2000 10 13    16 45.17   -68 13.8    2.143    2.025    69.6    27.5    21.8
2000 10 23    17 41.80   -68 18.7    2.239    2.078    67.8    26.3    21.9
2000 11 02    18 37.86   -67 30.0    2.336    2.132    65.8    25.1    22.0

Gareth V. Williams           (C) Copyright 2000 MPC           M.P.E.C. 2000-H28

Read MPEC 2000-H27 Read MPEC 2000-H29


Our Web policy. Index to the CBAT/MPC/ICQ pages.


Valid HTML 4.01!